Location: Berg
(48.4333°N, 13.9167°E)
Time: 05:46:23
(UTC+00:00)

ATLAS CENTAUR R/B - Pass Details

Date: 25 January 2021
Orbit: 475 x 670 km, 64.7° (Epoch: 06 March)

Event Time Altitude Azimuth Distance (km) Brightness Sun altitude
Exits shadow 04:24:46 24° 177° (S) 1,030 2.7 -22.5°
Maximum altitude 04:26:29 41° 122° (ESE) 706 2.2 -22.3°
Drops below altitude 10° 04:29:57 10° 51° (NE) 1,652 4.4 -21.7°
Sets 04:32:09 0° 44° (NE) 2,542 5.3 -21.3°
